Oakland, CA

7:29 AM PDT on June 23, 2018 (GMT -0700)
Metro Oakland International

Weather History for KOAK - October, 2017

Change the Weather History Date:

Monday, October 2, 2017

  Actual Average Record
Temperature  
Mean Temperature 62 °F 63 °F  
Max Temperature 73 °F 72 °F 98 °F (1980)
Min Temperature 50 °F 53 °F 43 °F (1950)
Degree Days  
Heating Degree Days 3 3  
Month to date heating degree days 6 6  
Since 1 July heating degree days 79 206  
Cooling Degree Days 0 1  
Month to date cooling degree days 0 2  
Year to date cooling degree days 290 127  
Growing Degree Days 12 (Base 50)    
Moisture  
Dew Point 43 °F    
Average Humidity 57    
Maximum Humidity 89    
Minimum Humidity 25    
Precipitation  
Precipitation 0.00 in 0.02 in 0.37 in (1967)
Month to date precipitation 0.00 0.03  
Year to date precipitation 20.12 13.53  
Sea Level Pressure  
Sea Level Pressure 29.83 in    
Wind  
Wind Speed 8 mph (NW)    
Max Wind Speed 21 mph    
Max Gust Speed 23 mph    
Visibility 10 miles    
Events      
T = Trace of Precipitation, MM = Missing Value Source: NWS Daily Summary

Daily Weather History Graph

Daily Weather History Graph

Search for Another Location

Airport or City:

Astronomy

Oct. 02, 2017 Rise Set
Actual Time 7:05 AM PDT 6:49 PM PDT
Civil Twilight 6:39 AM PDT 7:16 PM PDT
Nautical Twilight 6:09 AM PDT 7:46 PM PDT
Astronomical Twilight 5:38 AM PDT 8:16 PM PDT
Moon 5:26 PM PDT (10/2) 3:44 AM PDT (10/2)
Length of Visible Light 12h 36m
Length of Day
11h 44m
Waxing Gibbous, 90% of the Moon is Illuminated
Oct 2
Waxing Gibbous
Oct 5
Full
Oct 12
Last Quarter
Oct 19
New
Oct 27
First Quarter

Hourly Weather History & Observations

Time (PDT) Temp. Dew Point Humidity Pressure Visibility Wind Dir Wind Speed Gust Speed Precip Events Conditions
12:53 AM 53.1 °F 50.0 °F 89% 29.84 in 10.0 mi NNE 4.6 mph - N/A   Clear
1:53 AM 61.0 °F 46.9 °F 60% 29.84 in 10.0 mi NNW 4.6 mph - N/A   Clear
2:53 AM 61.0 °F 45.0 °F 56% 29.84 in 10.0 mi NW 11.5 mph - N/A   Clear
3:53 AM 62.1 °F 39.9 °F 44% 29.83 in 10.0 mi NW 8.1 mph - N/A   Clear
4:53 AM 62.1 °F 36.0 °F 38% 29.83 in 10.0 mi NNW 8.1 mph - N/A   Clear
5:53 AM 60.1 °F 35.1 °F 39% 29.84 in 10.0 mi NNW 6.9 mph - N/A   Clear
6:53 AM 60.1 °F 34.0 °F 38% 29.85 in 10.0 mi North 9.2 mph - N/A   Partly Cloudy
7:53 AM 61.0 °F 34.0 °F 36% 29.87 in 10.0 mi North 6.9 mph - N/A   Partly Cloudy
8:53 AM 66.0 °F 33.1 °F 29% 29.88 in 10.0 mi NNW 5.8 mph - N/A   Partly Cloudy
9:53 AM 69.1 °F 32.0 °F 25% 29.89 in 10.0 mi NNW 6.9 mph - N/A   Partly Cloudy
10:53 AM 69.1 °F 39.9 °F 35% 29.88 in 10.0 mi West 10.4 mph - N/A   Partly Cloudy
11:53 AM 71.1 °F 34.0 °F 26% 29.87 in 10.0 mi West 11.5 mph - N/A   Partly Cloudy
12:53 PM 72.0 °F 39.9 °F 31% 29.85 in 10.0 mi WSW 10.4 mph - N/A   Clear
1:53 PM 72.0 °F 45.0 °F 38% 29.83 in 10.0 mi West 16.1 mph - N/A   Clear
2:53 PM 71.1 °F 44.1 °F 38% 29.82 in 10.0 mi West 18.4 mph - N/A   Clear
3:53 PM 69.1 °F 46.9 °F 45% 29.81 in 10.0 mi West 17.3 mph - N/A   Clear
4:53 PM 68.0 °F 46.9 °F 47% 29.80 in 10.0 mi West 13.8 mph - N/A   Clear
5:53 PM 64.0 °F 48.9 °F 58% 29.79 in 10.0 mi WSW 8.1 mph - N/A   Clear
6:53 PM 61.0 °F 48.0 °F 62% 29.78 in 10.0 mi NW 3.5 mph - N/A   Partly Cloudy
7:53 PM 60.1 °F 48.9 °F 67% 29.78 in 10.0 mi Calm Calm - N/A   Clear
8:53 PM 59.0 °F 50.0 °F 72% 29.78 in 10.0 mi Calm Calm - N/A   Clear
9:53 PM 57.9 °F 48.9 °F 72% 29.78 in 10.0 mi Calm Calm - N/A   Clear
10:53 PM 57.0 °F 50.0 °F 77% 29.77 in 10.0 mi NW 4.6 mph - N/A   Clear
11:53 PM 57.0 °F 48.9 °F 74% 29.77 in 10.0 mi Calm Calm - N/A   Clear